COSMOS 2251 DEB, 38068

Orbit data source: Space-Track

COSMOS 2251 DEB, 38068 is space debris in LEO originally from a launch on Wed, 16 Jun 1993 UTC launched from the Plesetsk Missile And Space Complex (PKMTR). The debris from Iridium 33, an American commercial communications satellite, has been tracked extensively since its accidental collision with the defunct Russian satellite Cosmos 2251 in 2009. This event, occurring at high speed in low Earth orbit (LEO), generated thousands of pieces of space debris, significantly increasing the risk of further collisions. The Iridium 33 debris cloud has impacted space traffic management and orbital debris mitigation strategies, making it a subject of ongoing study in space situational awareness.

Loading next visibility...
Identifier
38068, 1993-036BSA
Orbit
LEO
Country
Flag of CISCIS
Related business
Manufacturer
Unknown
Mission
Spacecraft
Bus & Motor
Unknown
Mass
Unknown
Launch date (UTC)
1993-06-16 (33 years ago)
Launch vehicle
Unknown
Launch site
Plesetsk Missile And Space Complex (PKMTR)
Object type
Payload
Rocket body
Debris
Shape & HBR
Unknown shape, 0.1 m
Radar Cross Section
Small (<0.1 m²)

Expand to show TLE details & history
Last TLE update: 1 day ago

TLE from 1 day ago
0 COSMOS 2251 DEB
1 38068U 93036BSA 26037.45929573  .00000957  00000-0  33630-3 0  9997
2 38068  74.0191 205.8451 0026765 283.2036  76.6131 14.36104506674465
Epoch: 2026-02-06T11:01Z
TLE epoch observation values (Epoch: 2026-02-06T11:01:23.151Z)
Latitude
-0°
Longitude
-96.09823°
Altitude
769.626 km
Speed
7.472 km/s
True Right ascension
13h 43m 22s
True Declination
0° 00' 00"
Sunlit
Object was in daylight at epoch
Visualization orbit readout
Latitude
Unknown
Longitude
Unknown
Altitude
Unknown
Speed
Unknown
Apparent Right ascension
Unknown
Apparent Declination
Unknown
Sunlit
N/A
Visualization observer readout
Local Sidereal Time
20:01:40
Azimuth
Unknown
Elevation
Unknown
Doppler factor
Unknown
Orbital elements
Apogee altitude
788.153 km
Perigee altitude
749.894 km
Semi-major axis
7,147.161 km
Eccentricity
0.00268
Inclination
74.0191°
RAAN
205.8451°
Arg. of periapsis
283.2036°
True anomaly
76.9117°
Mean anomaly
76.6131°
Eccentric anomaly
76.76238°
Mean motion
3.59205 °/min
Orbital period
100.22 mins
BSTAR
0.0003363
Loading maneuver chart data...
Computing Atmospheric mass density...
Loading historical data...
Loading historical data...
Loading historical data...
Loading historical data...
Loading historical data...
Loading historical data...
Loading historical data...

Documentation

Showing up to 5 results
|